This demonstration page uses our WeatherBlox Daily Observations layout. Learn more.

Left ArrowRight Arrow

36.19886, -115.1175

Hourly Observations for February 25, 2022

Temp ( °F °C ) Dew Point ( °F °C ) Humidity (%) Winds ( mph kmh ) Pressure ( in mb ) Visibility ( mi km ) Precip ( " mm )
12:53 am 00:53 Clear 39 3.9 12 -11.1 33 33 Calm 30.27 1025 10 16 0.00 0.00
1:53 am 01:53 Clear 41 5 7 -13.9 24 24 N 8 13 30.26 1025 10 16 0.00 0.00
2:53 am 02:53 Clear 39 3.9 7 -13.9 26 26 NNW 6 9 30.26 1025 10 16 0.00 0.00
3:53 am 03:53 Clear 37 2.8 6 -14.4 27 27 NNW 8 13 30.27 1025 10 16 0.00 0.00
4:53 am 04:53 Clear 38 3.3 6 -14.4 26 26 NW 7 11 30.27 1025 10 16 0.00 0.00
5:53 am 05:53 Clear 39 3.9 6 -14.4 25 25 NW 15 24 30.28 1025 10 16 0.00 0.00
6:53 am 06:53 Sunny 39 3.9 6 -14.4 25 25 N 8 13 30.30 1026 10 16 0.00 0.00
7:53 am 07:53 Sunny 43 6.1 7 -13.9 22 22 N 8 13 30.33 1027 10 16 0.00 0.00
8:53 am 08:53 Sunny 47 8.3 7 -13.9 19 19 NNW 15 24 30.33 1027 10 16 0.00 0.00
9:53 am 09:53 Sunny 48 8.9 8 -13.3 19 19 ENE 8 13 30.34 1027 10 16 0.00 0.00
10:53 am 10:53 Sunny 50 10 7 -13.9 17 17 SE 7 11 30.32 1027 10 16 0.00 0.00
11:53 am 11:53 Sunny 53 11.7 6 -14.4 15 15 ENE 8 13 30.29 1026 10 16 0.00 0.00
12:53 pm 12:53 Sunny 54 12.2 7 -13.9 15 15 ENE 6 9 30.26 1025 10 16 0.00 0.00
1:53 pm 13:53 Sunny 55 12.8 5 -15 13 13 undefined N/A 30.24 1024 10 16 0.00 0.00
2:53 pm 14:53 Sunny 57 13.9 2 -16.7 10 10 ENE 8 13 30.23 1024 10 16 0.00 0.00
3:53 pm 15:53 Sunny 56 13.3 1 -17.2 10 10 Calm 30.24 1024 10 16 0.00 0.00
4:53 pm 16:53 Sunny 55 12.8 0 -17.8 10 10 ESE 7 11 30.24 1024 10 16 0.00 0.00
5:53 pm 17:53 Clear 54 12.2 0 -17.8 11 11 E 3 6 30.26 1025 10 16 0.00 0.00
6:53 pm 18:53 Clear 52 11.1 -2 -18.9 10 10 NE 6 9 30.27 1025 10 16 0.00 0.00
7:53 pm 19:53 Clear 50 10 6 -14.4 17 17 NE 10 17 30.29 1026 10 16 0.00 0.00
8:53 pm 20:53 Clear 46 7.8 11 -11.7 24 24 ENE 10 17 30.32 1027 10 16 0.00 0.00
9:53 pm 21:53 Clear 46 7.8 12 -11.1 25 25 NNE 7 11 30.34 1027 10 16 0.00 0.00
10:53 pm 22:53 Clear 44 6.7 12 -11.1 27 27 ENE 6 9 30.35 1028 10 16 0.00 0.00
11:53 pm 23:53 Clear 43 6.1 13 -10.6 29 29 SW 6 9 30.37 1028 10 16 0.00 0.00

Powered by AerisWeather